Overview Statistics Trail Chart Weather Telemetry Raw packets
 

This is the latest recevied weather packets stored in our database for station/object NT9G. If no packets are shown the sender has not sent any weather packets the latest 10 day(s).

<< 71 72 73 74 75 76 77 >>
Time Temp. Humidity Pressure Rain* Wind** Luminosity Snow
1777320872 22.22° C 70% 1001.9 hPa 0.76 mm - - -
1777320571 22.22° C 73% 1001.8 hPa 0.76 mm - - -
1777319970 21.67° C 76% 1001.5 hPa 0.76 mm - - -
1777319670 21.11° C 80% 1001.3 hPa 0.76 mm - - -
1777319370 21.11° C 84% 1000.9 hPa 0.76 mm - - -
1777319070 20.56° C 89% 1000.9 hPa 0.76 mm - - -
1777318769 20.56° C 89% 1000.8 hPa 0.76 mm - - -
1777318469 20.56° C 89% 1000.8 hPa 0.76 mm - - -
1777318169 20.56° C 90% 1000.8 hPa 0.76 mm - - -
1777317869 20.56° C 94% 1000.8 hPa 0.76 mm - - -
1777317568 20° C 95% 1000.7 hPa 0.76 mm - - -
1777317267 20° C 97% 1000.8 hPa 0.76 mm - - -
1777316966 20° C 100% 1000.8 hPa 0.76 mm - - -
1777316666 19.44° C 100% 1000.8 hPa 0.76 mm - - -
1777316065 19.44° C 100% 1001.2 hPa 0.76 mm - - -
1777315764 18.89° C 100% 1001.2 hPa 0.76 mm - - -
1777315464 18.89° C 100% 1001.3 hPa 0.76 mm - - -
1777315163 18.33° C 100% 1001.3 hPa 0.76 mm - - -
1777313060 16.11° C 100% 1002.7 hPa 0.76 mm - - -
1777312159 15.56° C 100% 1002.5 hPa 0.51 mm - - -
1777308555 15.56° C 100% 1008.9 hPa 0.51 mm - - -
1777307955 15.56° C 100% 1009.5 hPa 0.51 mm - - -
1777307054 15.56° C 100% 1009.5 hPa 0.25 mm - - -
1777306453 15.56° C 100% 1009.6 hPa 0.25 mm - - -
1777306152 15.56° C 100% 1009.8 hPa 0.25 mm - - -

* Rain since midnight (hover to see other rain measurements)
** Current wind speed in m/s (hover to see current wind gust speed)